,,,PA_Meas_PMT16A,,PR_Meas_QMR101_102,,RH_Meas_QMH101,,SR_Meas_QMS101,,TA_Meas_QMH101,,GenWind,,GenWind,
date,time,status,PA,status,PR,status,RH,status,SR,status,TA,status,DirAvg,status,SpdAvg,
2009-05-03, 00:00:04,VALID,1001.05,VALID,0,VALID,91.1053,VALID,0,VALID,23.8786,VALID,34,VALID,1.55898,
2009-05-03, 00:01:04,VALID,1001.05,VALID,0,VALID,91.1053,VALID,0,VALID,23.8786,VALID,36,VALID,1.59375,
2009-05-03, 00:02:04,VALID,1001.05,VALID,0,VALID,91.0443,VALID,0,VALID,23.8768,VALID,39,VALID,1.5332,
2009-05-03, 00:03:04,VALID,1001.06,VALID,0,VALID,91.0824,VALID,0,VALID,23.8573,VALID,32,VALID,1.55352,
2009-05-03, 00:04:04,VALID,1001.04,VALID,0,VALID,91.1053,VALID,0,VALID,23.8573,VALID,27,VALID,1.2875,
2009-05-03, 00:05:04,VALID,1001.06,VALID,0,VALID,91.0824,VALID,0,VALID,23.8183,VALID,24,VALID,0.714453,
2009-05-03, 00:06:04,VALID,1001.02,VALID,0,VALID,91.1511,VALID,0,VALID,23.7988,VALID,17,VALID,1.02305,
2009-05-03, 00:07:04,VALID,1001,VALID,0,VALID,91.3037,VALID,0,VALID,23.7579,VALID,9,VALID,1.14961,
2009-05-03, 00:08:04,VALID,1001.02,VALID,0,VALID,91.3189,VALID,0,VALID,23.742,VALID,9,VALID,1.07969,
2009-05-03, 00:09:04,VALID,1001,VALID,0,VALID,91.4486,VALID,0,VALID,23.742,VALID,9,VALID,1.16094,
2009-05-03, 00:10:04,VALID,1000.97,VALID,0,VALID,91.5554,VALID,0,VALID,23.7225,VALID,9,VALID,1.03281,
2009-05-03, 00:11:04,VALID,1000.99,VALID,0,VALID,91.441,VALID,0,VALID,23.703,VALID,8,VALID,0.787109,
2009-05-03, 00:12:04,VALID,1000.95,VALID,0,VALID,91.1129,VALID,0,VALID,23.6835,VALID,96,VALID,0.467969,
2009-05-03, 00:13:04,VALID,1001,VALID,0,VALID,91.3418,VALID,0,VALID,23.6445,VALID,109,VALID,0.363672,
2009-05-03, 00:14:04,VALID,1000.94,VALID,0,VALID,91.5173,VALID,0,VALID,23.625,VALID,98,VALID,0.232812,
2009-05-03, 00:15:04,VALID,1000.95,VALID,0,VALID,91.5249,VALID,0,VALID,23.6232,VALID,75,VALID,0.499609,
2009-05-03, 00:16:04,VALID,1000.98,VALID,0,VALID,91.3647,VALID,0,VALID,23.625,VALID,75,VALID,0.294922,
2009-05-03, 00:17:04,VALID,1000.95,VALID,0,VALID,91.2503,VALID,0,VALID,23.664,VALID,75,VALID,0.426562,
2009-05-03, 00:18:04,VALID,1000.95,VALID,0,VALID,90.9832,VALID,0,VALID,23.6835,VALID,50,VALID,0.704297,
2009-05-03, 00:19:04,VALID,1000.98,VALID,0,VALID,90.5178,VALID,0,VALID,23.742,VALID,47,VALID,0.666797,
2009-05-03, 00:20:04,VALID,1000.96,VALID,0,VALID,90.4415,VALID,0,VALID,23.8006,VALID,32,VALID,0.967969,
2009-05-03, 00:21:04,VALID,1000.95,VALID,0,VALID,89.8006,VALID,0,VALID,23.8183,VALID,57,VALID,0.896094,
2009-05-03, 00:22:04,VALID,1000.95,VALID,0,VALID,89.5183,VALID,0,VALID,23.8591,VALID,55,VALID,0.721875,
2009-05-03, 00:23:04,VALID,1000.93,VALID,0,VALID,89.4954,VALID,0,VALID,23.9177,VALID,51,VALID,0.49375,
2009-05-03, 00:24:04,VALID,1000.91,VALID,0,VALID,89.4268,VALID,0,VALID,23.8963,VALID,51,VALID,0.325781,
2009-05-03, 00:25:04,VALID,1000.89,VALID,0,VALID,89.2818,VALID,0,VALID,23.8768,VALID,76,VALID,0.793359,
2009-05-03, 00:26:04,VALID,1000.85,VALID,0,VALID,88.9537,VALID,0,VALID,23.9177,VALID,76,VALID,0.634375,
2009-05-03, 00:27:04,VALID,1000.84,VALID,0,VALID,88.908,VALID,0,VALID,23.9762,VALID,77,VALID,0.869531,
2009-05-03, 00:28:04,VALID,1000.85,VALID,0,VALID,88.4731,VALID,0,VALID,24.0153,VALID,61,VALID,0.989062,
2009-05-03, 00:29:04,VALID,1000.83,VALID,0,VALID,88.206,VALID,0,VALID,24.0525,VALID,58,VALID,0.958594,
2009-05-03, 00:30:04,VALID,1000.81,VALID,0,VALID,87.8322,VALID,0,VALID,24.1128,VALID,58,VALID,0.738672,
2009-05-03, 00:31:04,VALID,1000.81,VALID,0,VALID,87.7254,VALID,0,VALID,24.1128,VALID,57,VALID,0.321484,
2009-05-03, 00:32:04,VALID,1000.8,VALID,0,VALID,87.7101,VALID,0,VALID,24.1128,VALID,57,VALID,0.164844,
2009-05-03, 00:33:04,VALID,1000.79,VALID,0,VALID,87.7635,VALID,0,VALID,24.0933,VALID,56,VALID,0.599609,
2009-05-03, 00:34:04,VALID,1000.81,VALID,0,VALID,87.8017,VALID,0,VALID,24.0915,VALID,39,VALID,0.829687,
2009-05-03, 00:35:04,VALID,1000.8,VALID,0,VALID,87.6033,VALID,0,VALID,24.1342,VALID,75,VALID,0.675781,
2009-05-03, 00:36:04,VALID,1000.83,VALID,0,VALID,87.5957,VALID,0,VALID,24.0933,VALID,58,VALID,0.671484,
2009-05-03, 00:37:04,VALID,1000.79,VALID,0,VALID,87.8246,VALID,0,VALID,24.1128,VALID,31,VALID,0.816797,
2009-05-03, 00:38:04,VALID,1000.83,VALID,0,VALID,88.1526,VALID,0,VALID,24.0525,VALID,22,VALID,0.489844,
2009-05-03, 00:39:04,VALID,1000.84,VALID,0,VALID,88.4197,VALID,0,VALID,24.0153,VALID,22,VALID,0.211719,
2009-05-03, 00:40:04,VALID,1000.82,VALID,0,VALID,88.6638,VALID,0,VALID,23.9354,VALID,22,VALID,0.147266,
2009-05-03, 00:41:04,VALID,1000.83,VALID,0,VALID,88.9385,VALID,0,VALID,23.8963,VALID,22,VALID,0.425,
2009-05-03, 00:42:04,VALID,1000.8,VALID,0,VALID,89.381,VALID,0,VALID,23.8786,VALID,27,VALID,0.738281,
2009-05-03, 00:43:04,VALID,1000.8,VALID,0,VALID,89.7472,VALID,0,VALID,23.8591,VALID,27,VALID,0.79375,
2009-05-03, 00:44:04,VALID,1000.78,VALID,0,VALID,89.6633,VALID,0,VALID,23.8396,VALID,29,VALID,0.521094,
2009-05-03, 00:45:04,VALID,1000.77,VALID,0,VALID,89.3123,VALID,0,VALID,23.8201,VALID,70,VALID,0.519922,
2009-05-03, 00:46:04,VALID,1000.79,VALID,0,VALID,89.4726,VALID,0,VALID,23.8201,VALID,70,VALID,0.224219,
2009-05-03, 00:47:04,VALID,1000.77,VALID,0,VALID,89.2208,VALID,0,VALID,23.8006,VALID,74,VALID,0.551562,
2009-05-03, 00:48:04,VALID,1000.76,VALID,0,VALID,88.4502,VALID,0,VALID,23.8201,VALID,119,VALID,0.866406,
2009-05-03, 00:49:04,VALID,1000.76,VALID,0,VALID,87.1379,VALID,0,VALID,23.8982,VALID,120,VALID,1.01602,
2009-05-03, 00:50:04,VALID,1000.79,VALID,0,VALID,86.3749,VALID,0,VALID,23.9939,VALID,116,VALID,0.921094,
2009-05-03, 00:51:04,VALID,1000.81,VALID,0,VALID,85.6425,VALID,0,VALID,24.1519,VALID,122,VALID,0.93125,
2009-05-03, 00:52:04,VALID,1000.8,VALID,0,VALID,84.5896,VALID,0,VALID,24.269,VALID,123,VALID,1.23945,
2009-05-03, 00:53:04,VALID,1000.8,VALID,0,VALID,84.231,VALID,0,VALID,24.4037,VALID,125,VALID,0.810547,
2009-05-03, 00:54:04,VALID,1000.83,VALID,0,VALID,83.9182,VALID,0,VALID,24.4818,VALID,120,VALID,0.71875,
2009-05-03, 00:55:04,VALID,1000.81,VALID,0,VALID,83.4223,VALID,0,VALID,24.5404,VALID,145,VALID,0.835156,
2009-05-03, 00:56:04,VALID,1000.81,VALID,0,VALID,82.5372,VALID,0,VALID,24.6203,VALID,155,VALID,0.963281,
2009-05-03, 00:57:04,VALID,1000.81,VALID,0,VALID,81.2326,VALID,0,VALID,24.6575,VALID,157,VALID,1.05156,
2009-05-03, 00:58:04,VALID,1000.8,VALID,0,VALID,80.256,VALID,0,VALID,24.835,VALID,163,VALID,1.56836,
2009-05-03, 00:59:04,VALID,1000.8,VALID,0,VALID,79.7906,VALID,0,VALID,24.9717,VALID,160,VALID,0.992578,
2009-05-03, 01:00:04,VALID,1000.83,VALID,0,VALID,79.5693,VALID,0,VALID,25.0284,VALID,151,VALID,0.96875,
2009-05-03, 01:01:04,VALID,1000.84,VALID,0,VALID,79.0658,VALID,0,VALID,25.0869,VALID,168,VALID,0.677734,
2009-05-03, 01:02:04,VALID,1000.83,VALID,0,VALID,79.2336,VALID,0,VALID,25.1455,VALID,168,VALID,0.533203,
2009-05-03, 01:03:04,VALID,1000.83,VALID,0,VALID,78.4935,VALID,0,VALID,25.1455,VALID,169,VALID,0.276563,
2009-05-03, 01:04:04,VALID,1000.81,VALID,0,VALID,78.463,VALID,0,VALID,25.165,VALID,166,VALID,0.785547,
2009-05-03, 01:05:04,VALID,1000.79,VALID,0,VALID,78.9284,VALID,0,VALID,25.1845,VALID,126,VALID,0.580469,
2009-05-03, 01:06:04,VALID,1000.76,VALID,0,VALID,81.6217,VALID,0,VALID,25.1455,VALID,99,VALID,0.503516,
2009-05-03, 01:07:04,VALID,1000.77,VALID,0,VALID,82.4838,VALID,0,VALID,25.0088,VALID,54,VALID,0.630859,
2009-05-03, 01:08:04,VALID,1000.75,VALID,0,VALID,84.0021,VALID,0,VALID,24.8332,VALID,37,VALID,0.685547,
2009-05-03, 01:09:04,VALID,1000.75,VALID,0,VALID,82.9721,VALID,0,VALID,24.6594,VALID,46,VALID,0.460156,
2009-05-03, 01:10:04,VALID,1000.73,VALID,0,VALID,84.8414,VALID,0,VALID,24.5209,VALID,45,VALID,0.605078,
2009-05-03, 01:11:04,VALID,1000.72,VALID,0,VALID,85.5204,VALID,0,VALID,24.4037,VALID,31,VALID,0.780859,
2009-05-03, 01:12:04,VALID,1000.7,VALID,0,VALID,86.6572,VALID,0,VALID,24.2885,VALID,26,VALID,0.435547,
2009-05-03, 01:13:04,VALID,1000.73,VALID,0,VALID,87.5804,VALID,0,VALID,24.111,VALID,26,VALID,0.370703,
2009-05-03, 01:14:04,VALID,1000.71,VALID,0,VALID,87.6796,VALID,0,VALID,24.0134,VALID,6,VALID,0.5875,
2009-05-03, 01:15:04,VALID,1000.7,VALID,0,VALID,87.3439,VALID,0,VALID,23.9744,VALID,6,VALID,0.542578,
2009-05-03, 01:16:04,VALID,1000.67,VALID,0,VALID,86.6877,VALID,0,VALID,24.0153,VALID,6,VALID,0.388281,
2009-05-03, 01:17:04,VALID,1000.64,VALID,0,VALID,86.5504,VALID,0,VALID,24.0134,VALID,6,VALID,0.213672,
2009-05-03, 01:18:04,VALID,1000.62,VALID,0,VALID,86.9548,VALID,0,VALID,24.0525,VALID,6,VALID,0.289844,
2009-05-03, 01:19:04,VALID,1000.66,VALID,0,VALID,87.4431,VALID,0,VALID,24.0543,VALID,6,VALID,0.304297,
2009-05-03, 01:20:04,VALID,1000.59,VALID,0,VALID,87.9085,VALID,0,VALID,24.0329,VALID,6,VALID,0.271094,
2009-05-03, 01:21:04,VALID,1000.59,VALID,0,VALID,88.2213,VALID,0,VALID,23.9957,VALID,6,VALID,0.442187,
2009-05-03, 01:22:04,VALID,1000.57,VALID,0,VALID,87.9085,VALID,0,VALID,23.9567,VALID,339,VALID,0.712891,
2009-05-03, 01:23:04,VALID,1000.59,VALID,0,VALID,88.2976,VALID,0,VALID,23.9567,VALID,339,VALID,0.796484,
2009-05-03, 01:24:04,VALID,1000.58,VALID,0,VALID,88.6028,VALID,0,VALID,23.9354,VALID,339,VALID,0.719922,
2009-05-03, 01:25:04,VALID,1000.55,VALID,0,VALID,88.8164,VALID,0,VALID,23.9372,VALID,339,VALID,0.550391,
2009-05-03, 01:26:04,VALID,1000.54,VALID,0,VALID,89.2208,VALID,0,VALID,23.8982,VALID,339,VALID,0.467969,
2009-05-03, 01:27:04,VALID,1000.51,VALID,0,VALID,89.6557,VALID,0,VALID,23.8183,VALID,339,VALID,0.437109,
2009-05-03, 01:28:04,VALID,1000.47,VALID,0,VALID,89.8693,VALID,0,VALID,23.7811,VALID,339,VALID,0.551953,
2009-05-03, 01:29:04,VALID,1000.48,VALID,0,VALID,90.1287,VALID,0,VALID,23.7402,VALID,339,VALID,0.338672,
2009-05-03, 01:30:04,VALID,1000.48,VALID,0,VALID,90.1974,VALID,0,VALID,23.7225,VALID,339,VALID,0.353125,
2009-05-03, 01:31:04,VALID,1000.47,VALID,0,VALID,90.0448,VALID,0,VALID,23.7012,VALID,339,VALID,0.367969,
2009-05-03, 01:32:04,VALID,1000.49,VALID,0,VALID,89.9685,VALID,0,VALID,23.7225,VALID,339,VALID,0.353906,
2009-05-03, 01:33:04,VALID,1000.42,VALID,0,VALID,90.0143,VALID,0,VALID,23.7225,VALID,339,VALID,0.255859,
2009-05-03, 01:34:04,VALID,1000.42,VALID,0,VALID,90.1287,VALID,0,VALID,23.7012,VALID,339,VALID,0.353906,
2009-05-03, 01:35:04,VALID,1000.4,VALID,0,VALID,90.0524,VALID,0,VALID,23.703,VALID,339,VALID,0.487109,
2009-05-03, 01:36:04,VALID,1000.34,VALID,0,VALID,90.1058,VALID,0,VALID,23.6817,VALID,339,VALID,0.457812,
2009-05-03, 01:37:04,VALID,1000.32,VALID,0,VALID,89.9609,VALID,0,VALID,23.703,VALID,55,VALID,1.03477,
2009-05-03, 01:38:04,VALID,1000.33,VALID,0,VALID,89.8617,VALID,0,VALID,23.6817,VALID,50,VALID,0.855469,
2009-05-03, 01:39:04,VALID,1000.33,VALID,0,VALID,89.4878,VALID,0,VALID,23.6817,VALID,48,VALID,0.658203,
2009-05-03, 01:40:04,VALID,1000.28,VALID,0,VALID,88.9766,VALID,0,VALID,23.6817,VALID,48,VALID,0.753516,
2009-05-03, 01:41:04,VALID,1000.33,VALID,0,VALID,88.908,VALID,0,VALID,23.664,VALID,48,VALID,0.577344,
2009-05-03, 01:42:04,VALID,1000.31,VALID,0,VALID,89.0987,VALID,0,VALID,23.6036,VALID,48,VALID,0.385156,
2009-05-03, 01:43:04,VALID,1000.28,VALID,0,VALID,89.3657,VALID,0,VALID,23.5451,VALID,44,VALID,0.426172,
2009-05-03, 01:44:04,VALID,1000.27,VALID,0,VALID,89.7549,VALID,0,VALID,23.5061,VALID,28,VALID,0.664453,
2009-05-03, 01:45:04,VALID,1000.24,VALID,0,VALID,89.9761,VALID,0,VALID,23.4866,VALID,11,VALID,0.596094,
2009-05-03, 01:46:04,VALID,1000.24,VALID,0,VALID,90.1897,VALID,0,VALID,23.5079,VALID,11,VALID,1.16484,
2009-05-03, 01:47:04,VALID,1000.21,VALID,0,VALID,89.9914,VALID,0,VALID,23.5061,VALID,11,VALID,0.618359,
2009-05-03, 01:48:04,VALID,1000.22,VALID,0,VALID,90.0829,VALID,0,VALID,23.4866,VALID,10,VALID,0.949609,
2009-05-03, 01:49:04,VALID,1000.2,VALID,0,VALID,90.1058,VALID,0,VALID,23.5061,VALID,13,VALID,0.869141,
2009-05-03, 01:50:04,VALID,1000.22,VALID,0,VALID,90.0677,VALID,0,VALID,23.5061,VALID,14,VALID,0.534375,
2009-05-03, 01:51:04,VALID,1000.23,VALID,0,VALID,90.0677,VALID,0,VALID,23.5061,VALID,14,VALID,0.304297,
2009-05-03, 01:52:04,VALID,1000.23,VALID,0,VALID,90.1974,VALID,0,VALID,23.4866,VALID,14,VALID,0.175781,
2009-05-03, 01:53:04,VALID,1000.2,VALID,0,VALID,90.3194,VALID,0,VALID,23.4475,VALID,14,VALID,0.137109,
2009-05-03, 01:54:04,VALID,1000.19,VALID,0,VALID,90.5254,VALID,0,VALID,23.428,VALID,14,VALID,0.218359,
2009-05-03, 01:55:04,VALID,1000.19,VALID,0,VALID,90.6551,VALID,0,VALID,23.4085,VALID,14,VALID,0.305469,
2009-05-03, 01:56:04,VALID,1000.2,VALID,0,VALID,90.678,VALID,0,VALID,23.4085,VALID,14,VALID,0.294141,
2009-05-03, 01:57:04,VALID,1000.2,VALID,0,VALID,90.6857,VALID,0,VALID,23.4103,VALID,14,VALID,0.31875,
2009-05-03, 01:58:04,VALID,1000.18,VALID,0,VALID,90.5865,VALID,0,VALID,23.4085,VALID,14,VALID,0.0839844,
2009-05-03, 01:59:04,VALID,1000.16,VALID,0,VALID,90.6094,VALID,0,VALID,23.3695,VALID,14,VALID,0,
2009-05-03, 02:00:04,VALID,1000.12,VALID,0,VALID,91.0519,VALID,0,VALID,23.35,VALID,14,VALID,0.09375,
2009-05-03, 02:01:04,VALID,1000.12,VALID,0,VALID,91.3113,VALID,0,VALID,23.3713,VALID,14,VALID,0.373437,
2009-05-03, 02:02:04,VALID,1000.12,VALID,0,VALID,91.5402,VALID,0,VALID,23.3305,VALID,14,VALID,0.605078,
2009-05-03, 02:03:04,VALID,1000.08,VALID,0,VALID,91.3723,VALID,0,VALID,23.35,VALID,31,VALID,0.867969,
2009-05-03, 02:04:04,VALID,1000.09,VALID,0,VALID,91.0748,VALID,0,VALID,23.389,VALID,31,VALID,0.949609,
2009-05-03, 02:05:04,VALID,1000.09,VALID,0,VALID,90.7849,VALID,0,VALID,23.4085,VALID,31,VALID,1.10625,
2009-05-03, 02:06:04,VALID,1000.1,VALID,0,VALID,90.6246,VALID,0,VALID,23.4671,VALID,31,VALID,0.960938,
2009-05-03, 02:07:04,VALID,1000.12,VALID,0,VALID,90.3805,VALID,0,VALID,23.4671,VALID,31,VALID,0.946484,
2009-05-03, 02:08:04,VALID,1000.09,VALID,0,VALID,90.2431,VALID,0,VALID,23.4475,VALID,31,VALID,0.847266,
2009-05-03, 02:09:04,VALID,1000.07,VALID,0,VALID,90.4415,VALID,0,VALID,23.4067,VALID,31,VALID,0.789063,
2009-05-03, 02:10:04,VALID,1000.09,VALID,0,VALID,90.5712,VALID,0,VALID,23.3695,VALID,50,VALID,0.822266,
2009-05-03, 02:11:04,VALID,1000.06,VALID,0,VALID,90.6551,VALID,0,VALID,23.3092,VALID,53,VALID,0.894922,
2009-05-03, 02:12:04,VALID,1000.08,VALID,0,VALID,90.762,VALID,0,VALID,23.2915,VALID,53,VALID,0.870703,
2009-05-03, 02:13:04,VALID,1000.09,VALID,0,VALID,90.6323,VALID,0,VALID,23.2719,VALID,62,VALID,0.98125,
2009-05-03, 02:14:04,VALID,1000.1,VALID,0,VALID,90.4263,VALID,0,VALID,23.2719,VALID,63,VALID,0.957812,
2009-05-03, 02:15:04,VALID,1000.06,VALID,0,VALID,90.1287,VALID,0,VALID,23.2915,VALID,64,VALID,0.780469,
2009-05-03, 02:16:04,VALID,1000.04,VALID,0,VALID,90.3118,VALID,0,VALID,23.311,VALID,64,VALID,0.855078,
2009-05-03, 02:17:04,VALID,1000.05,VALID,0,VALID,90.3957,VALID,0,VALID,23.2719,VALID,64,VALID,0.769531,
2009-05-03, 02:18:04,VALID,1000.04,VALID,0,VALID,90.4339,VALID,0,VALID,23.2524,VALID,64,VALID,0.774219,
2009-05-03, 02:19:04,VALID,1000.03,VALID,0,VALID,90.617,VALID,0,VALID,23.2134,VALID,56,VALID,0.951953,
2009-05-03, 02:20:04,VALID,1000.02,VALID,0,VALID,90.8383,VALID,0,VALID,23.1744,VALID,52,VALID,0.899609,
2009-05-03, 02:21:04,VALID,1000.01,VALID,0,VALID,91.3189,VALID,0,VALID,23.1549,VALID,56,VALID,1.05469,
2009-05-03, 02:22:04,VALID,999.966,VALID,0,VALID,91.5936,VALID,0,VALID,23.1354,VALID,57,VALID,1.06953,
2009-05-03, 02:23:04,VALID,999.951,VALID,0,VALID,91.7691,VALID,0,VALID,23.1159,VALID,58,VALID,1.02266,
2009-05-03, 02:24:04,VALID,999.928,VALID,0,VALID,91.9293,VALID,0,VALID,23.1159,VALID,57,VALID,1.22227,
2009-05-03, 02:25:04,VALID,999.905,VALID,0,VALID,92.0285,VALID,0,VALID,23.1176,VALID,58,VALID,1.18555,
2009-05-03, 02:26:04,VALID,999.9,VALID,0,VALID,92.1124,VALID,0,VALID,23.0981,VALID,53,VALID,1.20586,
2009-05-03, 02:27:04,VALID,999.885,VALID,0,VALID,92.0514,VALID,0,VALID,23.0769,VALID,52,VALID,1.14297,
2009-05-03, 02:28:04,VALID,999.894,VALID,0,VALID,91.8911,VALID,0,VALID,23.0769,VALID,47,VALID,1.10352,
2009-05-03, 02:29:04,VALID,999.863,VALID,0,VALID,91.8454,VALID,0,VALID,23.0573,VALID,45,VALID,1.09648,
2009-05-03, 02:30:04,VALID,999.858,VALID,0,VALID,91.9369,VALID,0,VALID,23.0378,VALID,47,VALID,1.05195,
2009-05-03, 02:31:04,VALID,999.861,VALID,0,VALID,91.853,VALID,0,VALID,23.0378,VALID,51,VALID,1.45078,
2009-05-03, 02:32:04,VALID,999.859,VALID,0,VALID,91.7385,VALID,0,VALID,23.0378,VALID,54,VALID,1.33672,
2009-05-03, 02:33:04,VALID,999.841,VALID,0,VALID,91.6699,VALID,0,VALID,23.0396,VALID,59,VALID,1.22617,
2009-05-03, 02:34:04,VALID,999.854,VALID,0,VALID,91.7843,VALID,0,VALID,23.0183,VALID,56,VALID,1.30859,
2009-05-03, 02:35:04,VALID,999.849,VALID,0,VALID,91.6928,VALID,0,VALID,23.0378,VALID,55,VALID,1.15,
2009-05-03, 02:36:04,VALID,999.867,VALID,0,VALID,91.8148,VALID,0,VALID,23.0396,VALID,62,VALID,1.23398,
2009-05-03, 02:37:04,VALID,999.87,VALID,0,VALID,91.9293,VALID,0,VALID,23.0201,VALID,69,VALID,1.33906,
2009-05-03, 02:38:04,VALID,999.812,VALID,0,VALID,92.0361,VALID,0,VALID,23.0006,VALID,65,VALID,1.27422,
2009-05-03, 02:39:04,VALID,999.799,VALID,0,VALID,92.12,VALID,0,VALID,23.0006,VALID,64,VALID,1.25586,
2009-05-03, 02:40:04,VALID,999.786,VALID,0,VALID,92.1429,VALID,0,VALID,22.9811,VALID,63,VALID,1.08203,
2009-05-03, 02:41:04,VALID,999.79,VALID,0,VALID,92.2421,VALID,0,VALID,22.9811,VALID,65,VALID,1.14844,
2009-05-03, 02:42:04,VALID,999.792,VALID,0,VALID,92.2574,VALID,0,VALID,22.9811,VALID,60,VALID,0.735156,
2009-05-03, 02:43:04,VALID,999.79,VALID,0,VALID,92.2116,VALID,0,VALID,22.9615,VALID,56,VALID,0.385938,
2009-05-03, 02:44:04,VALID,999.794,VALID,0,VALID,92.1811,VALID,0,VALID,22.9225,VALID,56,VALID,0.189063,
2009-05-03, 02:45:04,VALID,999.799,VALID,0,VALID,92.2574,VALID,0,VALID,22.9225,VALID,56,VALID,0.366406,
2009-05-03, 02:46:04,VALID,999.765,VALID,0,VALID,92.4176,VALID,0,VALID,22.9243,VALID,43,VALID,0.472656,
2009-05-03, 02:47:04,VALID,999.761,VALID,0,VALID,92.4939,VALID,0,VALID,22.903,VALID,30,VALID,0.474609,
2009-05-03, 02:48:04,VALID,999.79,VALID,0,VALID,92.532,VALID,0,VALID,22.9225,VALID,6,VALID,0.503906,
2009-05-03, 02:49:04,VALID,999.764,VALID,0,VALID,92.6388,VALID,0,VALID,22.9243,VALID,6,VALID,0.558984,
2009-05-03, 02:50:04,VALID,999.744,VALID,0,VALID,92.677,VALID,0,VALID,22.8835,VALID,6,VALID,0.416406,
2009-05-03, 02:51:04,VALID,999.808,VALID,0,VALID,92.738,VALID,0,VALID,22.8835,VALID,6,VALID,0.388672,
2009-05-03, 02:52:04,VALID,999.793,VALID,0,VALID,92.8143,VALID,0,VALID,22.864,VALID,6,VALID,0.403516,
2009-05-03, 02:53:04,VALID,999.802,VALID,0,VALID,92.8906,VALID,0,VALID,22.864,VALID,6,VALID,0.401953,
2009-05-03, 02:54:04,VALID,999.806,VALID,0,VALID,92.883,VALID,0,VALID,22.8657,VALID,6,VALID,0.214844,
2009-05-03, 02:55:04,VALID,999.833,VALID,0,VALID,92.8601,VALID,0,VALID,22.8657,VALID,6,VALID,0.189453,
2009-05-03, 02:56:04,VALID,999.815,VALID,0,VALID,92.9364,VALID,0,VALID,22.8462,VALID,6,VALID,0.312109,
2009-05-03, 02:57:04,VALID,999.817,VALID,0,VALID,92.9898,VALID,0,VALID,22.8462,VALID,6,VALID,0.254297,
2009-05-03, 02:58:04,VALID,999.815,VALID,0,VALID,92.9517,VALID,0,VALID,22.825,VALID,6,VALID,0.188281,
2009-05-03, 02:59:04,VALID,999.833,VALID,0,VALID,92.9135,VALID,0,VALID,22.825,VALID,6,VALID,0.431641,
2009-05-03, 03:00:04,VALID,999.808,VALID,0,VALID,92.8372,VALID,0,VALID,22.8055,VALID,6,VALID,0.435937,
2009-05-03, 03:01:04,VALID,999.781,VALID,0,VALID,92.7457,VALID,0,VALID,22.8055,VALID,6,VALID,0.495703,
2009-05-03, 03:02:04,VALID,999.787,VALID,0,VALID,92.7075,VALID,0,VALID,22.8072,VALID,6,VALID,0.516406,
2009-05-03, 03:03:04,VALID,999.795,VALID,0,VALID,92.7609,VALID,0,VALID,22.786,VALID,6,VALID,0.604688,
2009-05-03, 03:04:04,VALID,999.788,VALID,0,VALID,92.7762,VALID,0,VALID,22.8055,VALID,6,VALID,0.696484,
2009-05-03, 03:05:04,VALID,999.818,VALID,0,VALID,92.6694,VALID,0,VALID,22.8055,VALID,6,VALID,0.705859,
2009-05-03, 03:06:04,VALID,999.811,VALID,0,VALID,92.5778,VALID,0,VALID,22.8267,VALID,6,VALID,0.710938,
2009-05-03, 03:07:04,VALID,999.8,VALID,0,VALID,92.3642,VALID,0,VALID,22.8055,VALID,6,VALID,0.764063,
2009-05-03, 03:08:04,VALID,999.772,VALID,0,VALID,92.204,VALID,0,VALID,22.8037,VALID,6,VALID,0.749219,
2009-05-03, 03:09:04,VALID,999.814,VALID,0,VALID,92.1963,VALID,0,VALID,22.8055,VALID,6,VALID,0.5375,
2009-05-03, 03:10:04,VALID,999.826,VALID,0,VALID,92.1963,VALID,0,VALID,22.7842,VALID,6,VALID,0.555859,
2009-05-03, 03:11:04,VALID,999.818,VALID,0,VALID,92.0895,VALID,0,VALID,22.7452,VALID,6,VALID,0.623828,
2009-05-03, 03:12:04,VALID,999.822,VALID,0,VALID,92.0895,VALID,0,VALID,22.7257,VALID,6,VALID,0.778906,
2009-05-03, 03:13:04,VALID,999.835,VALID,0,VALID,92.1277,VALID,0,VALID,22.7452,VALID,5,VALID,0.804297,
2009-05-03, 03:14:04,VALID,999.826,VALID,0,VALID,91.998,VALID,0,VALID,22.7452,VALID,2,VALID,0.725781,
2009-05-03, 03:15:04,VALID,999.837,VALID,0,VALID,92.2345,VALID,0,VALID,22.7452,VALID,2,VALID,0.615625,
2009-05-03, 03:16:04,VALID,999.855,VALID,0,VALID,92.2574,VALID,0,VALID,22.7664,VALID,2,VALID,0.482812,
2009-05-03, 03:17:04,VALID,999.816,VALID,0,VALID,92.0971,VALID,0,VALID,22.7452,VALID,2,VALID,0.440625,
2009-05-03, 03:18:04,VALID,999.809,VALID,0,VALID,91.9217,VALID,0,VALID,22.7257,VALID,2,VALID,0.460938,
2009-05-03, 03:19:04,VALID,999.79,VALID,0,VALID,91.6928,VALID,0,VALID,22.7062,VALID,2,VALID,0.455078,
2009-05-03, 03:20:04,VALID,999.789,VALID,0,VALID,91.8225,VALID,0,VALID,22.6867,VALID,36,VALID,1.03633,
2009-05-03, 03:21:04,VALID,999.771,VALID,0,VALID,91.9903,VALID,0,VALID,22.7079,VALID,43,VALID,0.963281,
2009-05-03, 03:22:04,VALID,999.862,VALID,0,VALID,91.8072,VALID,0,VALID,22.7062,VALID,47,VALID,1.04609,
2009-05-03, 03:23:04,VALID,999.796,VALID,0,VALID,92.0743,VALID,0.112286,VALID,22.7257,VALID,52,VALID,1.26484,
2009-05-03, 03:24:04,VALID,999.779,VALID,0,VALID,92.4481,VALID,0.112286,VALID,22.7452,VALID,50,VALID,1.23789,
2009-05-03, 03:25:04,VALID,999.795,VALID,0,VALID,92.4863,VALID,0,VALID,22.7647,VALID,51,VALID,1.03984,
2009-05-03, 03:26:04,VALID,999.822,VALID,0,VALID,92.4328,VALID,0,VALID,22.7452,VALID,51,VALID,0.823438,
2009-05-03, 03:27:04,VALID,999.845,VALID,0,VALID,92.4634,VALID,0,VALID,22.7452,VALID,51,VALID,0.722266,
2009-05-03, 03:28:04,VALID,999.827,VALID,0,VALID,92.5549,VALID,0,VALID,22.7257,VALID,51,VALID,0.689062,
2009-05-03, 03:29:04,VALID,999.861,VALID,0,VALID,92.6694,VALID,0,VALID,22.724,VALID,51,VALID,0.897266,
2009-05-03, 03:30:04,VALID,999.882,VALID,0,VALID,92.7838,VALID,0.112286,VALID,22.7452,VALID,51,VALID,0.898438,
2009-05-03, 03:31:04,VALID,999.918,VALID,0,VALID,92.883,VALID,0,VALID,22.7452,VALID,50,VALID,0.922266,
2009-05-03, 03:32:04,VALID,999.919,VALID,0,VALID,92.8143,VALID,0,VALID,22.7435,VALID,51,VALID,0.776563,
2009-05-03, 03:33:04,VALID,999.927,VALID,0,VALID,92.6999,VALID,0.112286,VALID,22.7452,VALID,51,VALID,0.848047,
2009-05-03, 03:34:04,VALID,999.896,VALID,0,VALID,92.5015,VALID,0,VALID,22.7647,VALID,53,VALID,0.930469,
2009-05-03, 03:35:04,VALID,999.885,VALID,0,VALID,92.3947,VALID,0,VALID,22.7647,VALID,58,VALID,1.14805,
2009-05-03, 03:36:04,VALID,999.9,VALID,0,VALID,92.3871,VALID,0,VALID,22.7647,VALID,62,VALID,1.08398,
2009-05-03, 03:37:04,VALID,999.881,VALID,0,VALID,92.4176,VALID,0,VALID,22.7842,VALID,62,VALID,1.03242,
2009-05-03, 03:38:04,VALID,999.896,VALID,0,VALID,92.2803,VALID,0,VALID,22.8037,VALID,62,VALID,0.854297,
2009-05-03, 03:39:04,VALID,999.923,VALID,0,VALID,92.1658,VALID,0,VALID,22.8232,VALID,62,VALID,0.868359,
2009-05-03, 03:40:04,VALID,999.877,VALID,0,VALID,92.0132,VALID,0.112286,VALID,22.8232,VALID,62,VALID,0.709375,
2009-05-03, 03:41:04,VALID,999.906,VALID,0,VALID,91.853,VALID,0,VALID,22.8232,VALID,62,VALID,0.741016,
2009-05-03, 03:42:04,VALID,999.905,VALID,0,VALID,91.7004,VALID,0,VALID,22.8232,VALID,62,VALID,0.632813,
2009-05-03, 03:43:04,VALID,999.914,VALID,0,VALID,91.6394,VALID,0,VALID,22.8215,VALID,62,VALID,0.675391,
2009-05-03, 03:44:04,VALID,999.937,VALID,0,VALID,91.5478,VALID,0.112286,VALID,22.8232,VALID,62,VALID,0.633594,
2009-05-03, 03:45:04,VALID,999.919,VALID,0,VALID,91.3647,VALID,0,VALID,22.8215,VALID,62,VALID,0.642578,
2009-05-03, 03:46:04,VALID,999.918,VALID,0,VALID,91.296,VALID,0,VALID,22.8623,VALID,62,VALID,0.480859,